When you browse on this site, cookies collect data to enhance your experience and personalize the content and advertising you see.
Visit our Privacy Policy to learn more. By continuing to use the site, you agree to this use of cookies and data.
EN

Hourly Weather Carlos Barbosa

Today, 14 August, Friday

Time Temperature Precipitation Wind Pressure Humidity
00:00 +11°C° 0 mm 0 mps 702 mmHg 99%
01:00 +11°C° 0 mm 0 mps 702 mmHg 99%
02:00 +11°C° 0 mm 0 mps 702 mmHg 99%
03:00 +11°C° 0 mm 0 mps 702 mmHg 99%
04:00 +10°C° 0 mm 0 mps 702 mmHg 99%
05:00 +10°C° 0 mm 0 mps 702 mmHg 99%
06:00 +10°C° 0 mm 0 mps 702 mmHg 98%
07:00 +11°C° 0 mm 0 mps 702 mmHg 97%
08:00 +12°C° 0 mm 0 mps 702 mmHg 96%
09:00 +13°C° 0 mm 1 mps 703 mmHg 95%
10:00 +15°C° 0 mm 1 mps 702 mmHg 88%
11:00 +18°C° 0 mm 1 mps 702 mmHg 82%
12:00 +19°C° 0 mm 1 mps 702 mmHg 75%
13:00 +20°C° 0 mm 1 mps 701 mmHg 72%
14:00 +21°C° 0 mm 1 mps 701 mmHg 69%
15:00 +23°C° 0 mm 1 mps 700 mmHg 65%
16:00 +21°C° 0.6 mm 1 mps 699 mmHg 76%
17:00 +19°C° 0.6 mm 1 mps 699 mmHg 87%
18:00 +16°C° 0.6 mm 1 mps 698 mmHg 97%
19:00 +16°C° 6.6 mm 1 mps 698 mmHg 98%
20:00 +15°C° 6.6 mm 1 mps 699 mmHg 98%
21:00 +15°C° 6.6 mm 1 mps 699 mmHg 99%
22:00 +15°C° 6.5 mm 1 mps 699 mmHg 99%
23:00 +15°C° 6.5 mm 1 mps 699 mmHg 99%

Tomorrow, 15 August, Saturday

Time Temperature Precipitation Wind Pressure Humidity
00:00 +15°C° 6.5 mm 1 mps 699 mmHg 99%
01:00 +15°C° 0.9 mm 1 mps 699 mmHg 99%
02:00 +14°C° 0.9 mm 1 mps 699 mmHg 99%
03:00 +14°C° 0.9 mm 1 mps 698 mmHg 99%
04:00 +14°C° 0 mm 1 mps 698 mmHg 99%
05:00 +14°C° 0 mm 1 mps 698 mmHg 99%
06:00 +13°C° 0 mm 1 mps 698 mmHg 99%
07:00 +14°C° 0 mm 1 mps 699 mmHg 98%
08:00 +15°C° 0 mm 1 mps 699 mmHg 97%
09:00 +16°C° 0 mm 1 mps 700 mmHg 96%
10:00 +16°C° 0.1 mm 2 mps 700 mmHg 90%
11:00 +17°C° 0.1 mm 2 mps 700 mmHg 84%
12:00 +17°C° 0.1 mm 2 mps 700 mmHg 78%
13:00 +18°C° 0 mm 2 mps 700 mmHg 74%
14:00 +19°C° 0 mm 2 mps 700 mmHg 70%
15:00 +19°C° 0 mm 2 mps 700 mmHg 66%
16:00 +19°C° 0 mm 1 mps 700 mmHg 75%
17:00 +16°C° 0 mm 1 mps 700 mmHg 84%
18:00 +13°C° 0 mm 0 mps 699 mmHg 93%
19:00 +13°C° 0 mm 0 mps 700 mmHg 95%
20:00 +12°C° 0 mm 0 mps 700 mmHg 96%
21:00 +11°C° 0 mm 0 mps 700 mmHg 98%
22:00 +11°C° 0.1 mm 0 mps 701 mmHg 97%
23:00 +12°C° 0.1 mm 0 mps 702 mmHg 95%

Day after tomorrow, 16 August, Sunday

Time Temperature Precipitation Wind Pressure Humidity
00:00 +12°C° 0.1 mm 0 mps 702 mmHg 94%
01:00 +12°C° 0.1 mm 1 mps 702 mmHg 94%
02:00 +11°C° 0.1 mm 1 mps 703 mmHg 95%
03:00 +10°C° 0.1 mm 1 mps 703 mmHg 95%
04:00 +10°C° 0 mm 1 mps 703 mmHg 95%
05:00 +9°C° 0 mm 1 mps 703 mmHg 96%
06:00 +9°C° 0 mm 1 mps 703 mmHg 96%
07:00 +9°C° 0 mm 1 mps 704 mmHg 94%
08:00 +9°C° 0 mm 1 mps 704 mmHg 92%
09:00 +9°C° 0 mm 1 mps 704 mmHg 90%
10:00 +11°C° 0 mm 1 mps 704 mmHg 82%
11:00 +12°C° 0 mm 1 mps 704 mmHg 74%
12:00 +14°C° 0 mm 1 mps 704 mmHg 67%
13:00 +14°C° 0 mm 1 mps 703 mmHg 65%
14:00 +15°C° 0 mm 1 mps 703 mmHg 63%
15:00 +15°C° 0 mm 1 mps 703 mmHg 62%
16:00 +13°C° 0 mm 1 mps 702 mmHg 70%
17:00 +12°C° 0 mm 1 mps 702 mmHg 77%
18:00 +10°C° 0 mm 1 mps 702 mmHg 85%
19:00 +9°C° 0 mm 1 mps 702 mmHg 88%
20:00 +7°C° 0 mm 0 mps 702 mmHg 90%
21:00 +5°C° 0 mm 0 mps 702 mmHg 93%
22:00 +5°C° 0 mm 0 mps 702 mmHg 93%
23:00 +5°C° 0 mm 0 mps 702 mmHg 94%

17 August, Monday

Time Temperature Precipitation Wind Pressure Humidity
00:00 +4°C° 0 mm 0 mps 702 mmHg 95%
01:00 +4°C° 0 mm 0 mps 702 mmHg 95%
02:00 +4°C° 0 mm 0 mps 702 mmHg 94%
03:00 +4°C° 0 mm 0 mps 702 mmHg 94%
04:00 +4°C° 0 mm 0 mps 702 mmHg 94%
05:00 +3°C° 0 mm 0 mps 702 mmHg 93%
06:00 +3°C° 0 mm 0 mps 702 mmHg 93%
07:00 +5°C° 0 mm 0 mps 702 mmHg 87%
08:00 +7°C° 0 mm 0 mps 703 mmHg 80%
09:00 +9°C° 0 mm 1 mps 703 mmHg 74%
10:00 +11°C° 0 mm 1 mps 703 mmHg 67%
11:00 +13°C° 0 mm 1 mps 703 mmHg 60%
12:00 +15°C° 0 mm 1 mps 703 mmHg 53%
13:00 +15°C° 0 mm 1 mps 703 mmHg 54%
14:00 +16°C° 0 mm 1 mps 702 mmHg 56%
15:00 +16°C° 0 mm 2 mps 702 mmHg 57%
16:00 +14°C° 0 mm 1 mps 701 mmHg 66%
17:00 +12°C° 0 mm 1 mps 701 mmHg 76%
18:00 +11°C° 0 mm 1 mps 701 mmHg 85%
19:00 +10°C° 0 mm 1 mps 701 mmHg 89%
20:00 +9°C° 0 mm 1 mps 701 mmHg 93%
21:00 +7°C° 0 mm 0 mps 701 mmHg 97%
22:00 +7°C° 0 mm 0 mps 700 mmHg 97%
23:00 +7°C° 0 mm 0 mps 700 mmHg 97%

18 August, Tuesday

Time Temperature Precipitation Wind Pressure Humidity
00:00 +8°C° 0 mm 1 mps 700 mmHg 98%
01:00 +7°C° 0.1 mm 0 mps 699 mmHg 98%
02:00 +7°C° 0.1 mm 0 mps 699 mmHg 98%
03:00 +8°C° 0.1 mm 0 mps 698 mmHg 98%
04:00 +8°C° 0 mm 0 mps 698 mmHg 98%
05:00 +9°C° 0 mm 1 mps 698 mmHg 98%
06:00 +9°C° 0 mm 1 mps 698 mmHg 98%
07:00 +11°C° 0.1 mm 1 mps 698 mmHg 96%
08:00 +12°C° 0.1 mm 1 mps 698 mmHg 94%
09:00 +14°C° 0.1 mm 1 mps 698 mmHg 93%
10:00 +16°C° 0.2 mm 1 mps 698 mmHg 86%
11:00 +19°C° 0.2 mm 1 mps 698 mmHg 80%
12:00 +22°C° 0.2 mm 1 mps 698 mmHg 73%
13:00 +21°C° 0.9 mm 1 mps 697 mmHg 78%
14:00 +21°C° 0.9 mm 1 mps 696 mmHg 83%
15:00 +21°C° 0.9 mm 1 mps 696 mmHg 87%
16:00 +20°C° 2.2 mm 1 mps 695 mmHg 90%
17:00 +18°C° 2.2 mm 1 mps 695 mmHg 93%
18:00 +15°C° 2.2 mm 0 mps 695 mmHg 96%
19:00 +15°C° 0.7 mm 1 mps 695 mmHg 97%
20:00 +14°C° 0.7 mm 1 mps 696 mmHg 97%
21:00 +14°C° 0.7 mm 1 mps 696 mmHg 98%
22:00 +14°C° 0.1 mm 1 mps 696 mmHg 98%
23:00 +13°C° 0.1 mm 1 mps 696 mmHg 98%

19 August, Wednesday

Time Temperature Precipitation Wind Pressure Humidity
00:00 +13°C° 0.1 mm 1 mps 696 mmHg 98%
01:00 +13°C° 0 mm 1 mps 697 mmHg 98%
02:00 +11°C° 0 mm 0 mps 697 mmHg 98%
03:00 +11°C° 0 mm 0 mps 697 mmHg 99%
04:00 +12°C° 0 mm 1 mps 697 mmHg 99%
05:00 +12°C° 0 mm 1 mps 698 mmHg 99%
06:00 +12°C° 0 mm 1 mps 698 mmHg 99%
07:00 +12°C° 0.1 mm 1 mps 699 mmHg 98%
08:00 +12°C° 0.1 mm 1 mps 700 mmHg 98%
09:00 +13°C° 0.1 mm 1 mps 700 mmHg 98%
10:00 +13°C° 0.2 mm 1 mps 700 mmHg 96%
11:00 +13°C° 0.2 mm 2 mps 701 mmHg 95%
12:00 +12°C° 0.2 mm 2 mps 701 mmHg 94%
13:00 +12°C° 0.2 mm 2 mps 701 mmHg 92%
14:00 +12°C° 0.2 mm 2 mps 701 mmHg 89%
15:00 +12°C° 0.2 mm 2 mps 701 mmHg 87%
16:00 +10°C° 0.1 mm 2 mps 701 mmHg 89%
17:00 +9°C° 0.1 mm 2 mps 702 mmHg 92%
18:00 +8°C° 0.1 mm 2 mps 702 mmHg 94%
19:00 +7°C° 0.1 mm 2 mps 703 mmHg 94%
20:00 +8°C° 0.1 mm 1 mps 704 mmHg 94%
21:00 +7°C° 0.1 mm 1 mps 704 mmHg 94%
22:00 +6°C° 0 mm 1 mps 705 mmHg 94%
23:00 +5°C° 0 mm 1 mps 705 mmHg 94%
Show more